Regional Weather Roundup
Issued by NWS

Home | Current Version | Previous Version | Graphics & Text | Print | Product List | Glossary On
Versions: 1 2 3 4 5 6 7 8 9 10 11 12 13 14 15 16 17 18 19 20 21 22 23 24 25 26 27 28 29 30 31 32 33 34 35 36 37 38 39 40 41 42 43 44 45 46 47 48 49 50
000
ASUS43 KLOT 302300
RWRIL

ILLINOIS REGIONAL WEATHER ROUNDUP
NATIONAL WEATHER SERVICE CHICAGO/ROMEOVILLE IL
500 PM CST FRI JAN 30 2015

NOTE: "FAIR" INDICATES FEW OR NO CLOUDS BELOW 12,000 FEET WITH NO
SIGNIFICANT WEATHER AND/OR OBSTRUCTIONS TO VISIBILITY.

* THESE STATIONS ARE NOT UNDER NWS QUALITY CONTROL. THEY ALSO MAY NOT
  REPORT WEATHER SUCH AS PRECIPITATION OR FOG.

ILZ001-002-007-009-015-016-024-310000-
NORTHWEST ILLINOIS

CITY           SKY/WX    TMP DP  RH WIND       PRES   REMARKS
MOLINE         CLEAR     28  16  60 SW5       30.44F WCI  23
STERLING*      CLEAR     25  14  63 CALM      30.45F
$$

ILZ003-004-008-010-011-017-018-310000-
NORTH CENTRAL ILLINOIS

CITY           SKY/WX    TMP DP  RH WIND       PRES   REMARKS
ROCKFORD       PTCLDY    26  13  57 SW7       30.44F WCI  18
$$

ILZ005-006-012>014-019>023-310000-
NORTHEAST ILLINOIS

CITY           SKY/WX    TMP DP  RH WIND       PRES   REMARKS
CHICAGO-OHARE  CLEAR     27   9  46 W7        30.42F WCI  19
CHICAGO-MIDWAY PTCLDY    29  15  56 SE8       30.43F WCI  21
AURORA         CLEAR     26  13  57 W6        30.44F WCI  19
WAUKEGAN       CLEAR     24  13  62 CALM      30.41F
DUPAGE AIRPORT CLEAR     26  12  55 W7        30.42F WCI  18
WHEELING       CLEAR     28   7  41 W7        30.44F WCI  21
NORTHERLY ISL    N/A     24  15  68 SE3         N/A
$$

LMZ740>746-310000-
SOUTHERN LAKE MICHIGAN

STATION/POSITION SKY/WX   TEMP    WIND        PRES    VSBY  WAVE
                          AIR SEA DIR/SP/G                  HT/PER
                          (F)     (DEG/KT/KT) (MB)    (MI)  (FT/S)
WAUKEGAN HARBOR            27     160/  6/  7   N/A
HARRISON CRIB              25     100/  4/  5   N/A
BURNHAM HARBOR             24     110/  4/  6   N/A
CALUMET HARBOR             26     100/  4/  6   N/A
MICHIGAN CITY              29     320/  4/  5   N/A
$$

ILZ025>027-034>036-040-047-049-050-058-095>099-310000-
WEST-CENTRAL ILLINOIS

CITY           SKY/WX    TMP DP  RH WIND       PRES   REMARKS
QUINCY         CLEAR     32  14  47 SW5       30.44F WCI  27
$$

ILZ028>032-037-038-041>044-048-051>054-059>061-310000-
CENTRAL ILLINOIS

CITY           SKY/WX    TMP DP  RH WIND       PRES   REMARKS
DECATUR        CLEAR     33  18  53 CALM      30.46F
PEORIA         CLEAR     34  18  52 CALM      30.46F
SPRINGFIELD    CLEAR     33  21  61 W5        30.46F WCI  29
TAYLORVILLE    NOT AVBL
$$

ILZ033-039-045-046-055>057-062-063-310000-
EAST-CENTRAL ILLINOIS

CITY           SKY/WX    TMP DP  RH WIND       PRES   REMARKS
CHAMPAIGN      CLEAR     31  18  58 W3        30.46S
MATTOON        CLEAR     31  18  58 N3        30.45F
$$

ILZ079-100>102-310000-
SOUTHWEST ILLINOIS

CITY           SKY/WX    TMP DP  RH WIND       PRES   REMARKS
ALTON          CLEAR     36  16  44 VRB6      30.47S WCI  31
BELLEVILLE     CLEAR     36  21  55 E2        30.46F
CAHOKIA*       CLEAR     38  17  42 CALM      30.47S
$$

ILZ064>066-069>071-074>076-080>082-084>086-088>090-092>094-310000-
SOUTH-CENTRAL ILLINOIS

CITY           SKY/WX    TMP DP  RH WIND       PRES   REMARKS
CARBONDALE     CLEAR     38  18  44 CALM      30.47F
MARION         MOCLDY    37  21  52 N6        30.48S WCI  33
MT. VERNON     CLEAR     37  18  44 CALM      30.47S
$$

ILZ067-068-072-073-078-083-087-091-310000-
SOUTHEAST ILLINOIS

CITY           SKY/WX    TMP DP  RH WIND       PRES   REMARKS
LAWRENCEVILLE  CLEAR     35  21  56 N6        30.48R WCI  30
$$

ABBREVIATIONS USED IN REMARKS
   TC - TEMPERATURE IN CELSIUS
  WCI - WIND CHILL INDEX
   HX - HEAT INDEX
  VSB - VISIBILITY
$$



USA.gov is the U.S. government's official web portal to all federal, state and local government web resources and services.